Location: La Comballaz
(46.3780°N, 7.0817°E)
Time: 15:38:20
(UTC+00:00)

Resurs 01 Rocket - Pass Details

Date: 09 April 2020
Orbit: 635 x 644 km, 98.0° (Epoch: 03 June)

Event Time Altitude Azimuth Distance (km) Brightness Sun altitude
Exits shadow 20:55:19 18° 227° (SW) 1,548 3.6 -25.3°
Maximum altitude 20:57:20 25° 266° (W) 1,287 3.5 -25.5°
Drops below altitude 10° 21:01:00 10° 322° (NW) 2,035 5.2 -25.9°
Sets 21:03:33 0° 336° (NNW) 2,951 6.2 -26.2°
